• Join FlightAware (Why Join?)
  • Login
  • US Flag 
07:27PM EDT


 

Airport Tracker/Info


-or-


 

Live Flight TrackerFlight Track Log ✈ UAL4236 ✈ 24-Apr-2013 ✈ KELP - KIAH

Flight Track Log - Related Links

Times and Time Zones

All times are in EDT time to prevent confusion due to time zone crossing. See the UAL4236 flight status page for this flight to view local times or setup timezone preferences in your user account.

Time Position Orientation Groundspeed Altitude Reporting Facility
EDT Latitude Longitude Course Direction KTS MPH feet Rate Location/Type
12:48PM 31.7586 -106.4086 189° South 203 234 6,100  Level Albuquerque Center
12:49PM 31.7422 -106.3428 106° East 235 270 8,000 2,040 Climbing Albuquerque Center
12:50PM 31.7356 -106.2594 95° East 258 297 10,300 1,500 Climbing Albuquerque Center
12:51PM 31.7381 -105.8572 96° East  Level FlightAware Approximate
12:52PM 31.7232 -105.7293 100° East  Level FlightAware Approximate
12:52PM 31.7269 -106.1714 97° East 267 307 11,400  Level Albuquerque Center
12:53PM 31.7092 -105.6012 96° East  Level FlightAware Approximate
12:53PM 31.7150 -106.0483 96° East 317 365 13,200  Level Albuquerque Center
12:54PM 31.7061 -105.9408 96° East 329 379 14,900 1,500 Climbing Albuquerque Center
12:55PM 31.6956 -105.8294 96° East 341 392 16,400 1,320 Climbing Albuquerque Center
12:56PM 31.6844 -105.7131 96° East 356 410 17,700 1,140 Climbing Albuquerque Center
12:57PM 31.6733 -105.5922 96° East 370 426 18,800 1,200 Climbing Albuquerque Center
12:58PM 31.6619 -105.4675 96° East 381 438 20,200 1,260 Climbing Albuquerque Center
12:59PM 31.6494 -105.3397 97° East 391 450 21,500 1,380 Climbing Albuquerque Center
01:00PM 31.6344 -105.1825 96° East 400 460 23,100 1,440 Climbing Albuquerque Center
01:01PM 31.6225 -105.0500 96° East 405 466 24,500 1,260 Climbing Albuquerque Center
01:02PM 31.6100 -104.9153 96° East 411 473 25,800 1,200 Climbing Albuquerque Center
01:03PM 31.5964 -104.7783 97° East 418 481 27,100 1,260 Climbing Albuquerque Center
01:04PM 31.5831 -104.6447 97° East 415 478 28,500 1,260 Climbing Albuquerque Center
01:05PM 31.5692 -104.5108 97° East 413 475 29,800 1,380 Climbing Albuquerque Center
01:06PM 31.5539 -104.3522 96° East 409 471 31,400 1,380 Climbing Albuquerque Center
01:07PM 31.5403 -104.2189 97° East 410 472 32,700 720 Climbing Albuquerque Center
01:08PM 31.5258 -104.0844 97° East 415 478 33,000 180 Climbing Albuquerque Center
01:09PM 31.5111 -103.9372 97° East 444 511 33,100 360 Climbing Albuquerque Center
01:10PM 31.4939 -103.7839 97° East 466 536 33,800 720 Climbing Albuquerque Center
01:11PM 31.4772 -103.6231 97° East 473 544 34,600 540 Climbing Albuquerque Center
01:12PM 31.4586 -103.4692 98° East 478 550 35,000 180 Climbing Albuquerque Center
01:13PM 31.4372 -103.3108 99° East 486 559 35,000  Level Albuquerque Center
01:14PM 31.4122 -103.1161 99° East 502 578 35,000  Level Albuquerque Center
01:15PM 31.3914 -102.9514 98° East 509 586 35,000  Level Albuquerque Center
01:16PM 31.3706 -102.7894 99° East 508 585 35,000  Level Albuquerque Center
01:17PM 31.3500 -102.6283 98° East 504 580 35,000  Level Albuquerque Center
01:18PM 31.3286 -102.4603 98° East 511 588 35,000  Level Albuquerque Center
01:19PM 31.3064 -102.2964 99° East 514 592 35,000  Level Albuquerque Center
01:20PM 31.2811 -102.1039 99° East 505 581 35,000  Level Albuquerque Center
01:22PM 31.2600 -101.9397 99° East 511 588 35,000  Level Albuquerque Center
01:23PM 31.2358 -101.7619 99° East 509 586 35,000  Level Albuquerque Center
01:24PM 31.2136 -101.5989 99° East 509 586 35,000  Level Albuquerque Center
01:24PM 31.2058 -101.5344 98° East 509 586 35,000  Level Houston Center
01:25PM 31.1786 -101.3461 100° East 509 586 35,000  Level Houston Center
01:26PM 31.1564 -101.1822 99° East 510 587 35,000  Level Houston Center
01:27PM 31.1331 -101.0183 99° East 513 590 35,000  Level Houston Center
01:28PM 31.1089 -100.8556 100° East 510 587 35,000  Level Houston Center
01:29PM 31.0864 -100.6911 99° East 511 588 35,000  Level Houston Center
01:30PM 31.0636 -100.5267 99° East 512 589 35,000  Level Houston Center
01:31PM 31.0389 -100.3622 100° East 513 590 35,000  Level Houston Center
01:32PM 31.0156 -100.1992 99° East 511 588 35,000  Level Houston Center
01:33PM 30.9847 -100.0022 100° East 514 592 35,000  Level Houston Center
01:34PM 30.9608 -99.8381 100° East 513 590 35,000  Level Houston Center
01:35PM 30.9356 -99.6739 100° East 513 590 35,000  Level Houston Center
01:36PM 30.9103 -99.5097 100° East 514 592 35,000  Level Houston Center
01:37PM 30.8839 -99.3425 100° East 514 592 35,000  Level Houston Center
01:39PM 30.8589 -99.1822 100° East 513 590 35,000 -300 Level Houston Center
01:40PM 30.8325 -99.0136 100° East 513 590 34,500 -720 Descending Houston Center
01:41PM 30.8050 -98.8492 101° East 513 590 33,600 -1,020 Descending Houston Center
01:42PM 30.7986 -98.6561 92° East 510 587 32,500 -1,020 Descending Houston Center
01:43PM 30.8019 -98.4903 89° East 509 586 31,500 -1,020 Descending Houston Center
01:44PM 30.8053 -98.3258 89° East 507 583 30,500 -900 Descending Houston Center
01:45PM 30.8078 -98.1619 89° East 503 579 29,700 -660 Descending Houston Center
01:46PM 30.8108 -97.9969 89° East 506 582 29,200 -360 Descending Houston Center
01:47PM 30.8131 -97.8322 89° East 506 582 29,000 -120 Descending Houston Center
01:48PM 30.8156 -97.6661 89° East 510 587 29,000  Level Houston Center
01:49PM 30.8169 -97.4728 89° East 510 587 29,000  Level Houston Center
01:50PM 30.8175 -97.3069 90° East 516 594 29,000 -120 Level Houston Center
01:51PM 30.8203 -97.1408 89° East 521 600 28,800 -540 Descending Houston Center
01:52PM 30.7869 -96.9817 104° East 506 582 27,900 -960 Descending Houston Center
01:53PM 30.7406 -96.8275 109° East 504 580 26,900 -1,380 Descending Houston Center
01:54PM 30.6961 -96.6761 109° East 495 570 25,100 -2,220 Descending Houston Center
01:56PM 30.6044 -96.3683 109° East 452 520 20,200 -2,400 Descending Houston Center
01:57PM 30.5644 -96.2378 110° East 432 497 17,700 -2,400 Descending Houston Center
01:58PM 30.5503 -96.1864 108° East 414 476 16,800 -2,160 Descending Houston Center
01:58PM 30.5256 -96.1122 111° Southeast 416 479 15,500 -2,460 Descending Houston Center
01:59PM 30.5097 -96.0553 108° East 399 459 14,300 -1,980 Descending Houston Center
01:59PM 30.4911 -95.9958 110° East 398 458 13,500 -1,620 Descending Houston Center
02:00PM 30.4708 -95.9214 108° East 393 452 12,500 -1,380 Descending Houston Center
02:00PM 30.4497 -95.8619 112° Southeast 388 447 12,100 -420 Descending Houston Center
02:01PM 30.4164 -95.8261 137° Southeast 367 422 12,100 -120 Level Houston Center
02:01PM 30.3775 -95.7833 136° Southeast 357 411 12,000  Descending Houston Center
02:02PM 30.3494 -95.7564 140° Southeast 323 372 12,100 -600 Climbing Houston Center
02:02PM 30.3128 -95.7158 136° Southeast 325 374 11,400 -1,200 Descending Houston Center
02:03PM 30.2892 -95.6908 138° Southeast 302 348 10,900 -1,980 Descending Houston Center
02:03PM 30.2519 -95.6525 138° Southeast 303 349 9,400 -2,580 Descending Houston Center
02:04PM 30.2106 -95.6108 139° Southeast 295 339 7,800 -2,280 Descending Houston Center
02:04PM 30.1908 -95.5906 138° Southeast 295 339 7,100 -1,620 Descending Houston Center
02:05PM 30.1594 -95.5564 137° Southeast 287 330 6,300 -1,080 Descending Houston Center
02:05PM 30.1336 -95.5289 137° Southeast 285 328 6,000 -300 Descending Houston Center
02:06PM 30.1067 -95.4831 124° Southeast 286 329 6,000  Level Houston Center
02:06PM 30.1064 -95.4275 90° East 293 337 6,000  Level Houston Center
02:07PM 30.1067 -95.3889 90° East 291 335 6,000  Level Houston Center
02:07PM 30.1056 -95.3353 91° East 288 331 6,000  Level Houston Center
02:08PM 30.1044 -95.2972 92° East 287 330 6,000 -420 Level Houston Center
02:08PM 30.1061 -95.2450 88° East 283 326 5,600 -1,020 Descending Houston Center
02:09PM 30.1047 -95.2081 92° East 279 321 5,000 -1,380 Descending Houston Center
02:09PM 30.0939 -95.1603 105° East 273 314 4,200 -1,500 Descending Houston Center
02:10PM 30.0617 -95.1528 169° South 246 283 3,500 -1,500 Descending Houston Center
02:11PM 30.0397 -95.1792 226° Southwest 242 278 2,700 -1,380 Descending Houston Center
02:11PM 30.0253 -95.2128 244° Southwest 220 253 2,100 -780 Descending Houston Center
02:12PM 30.0125 -95.2389 241° Southwest 224 258 1,900 -900 Descending Houston Center
02:12PM 30.0069 -95.2658 257° West 163 188 1,200 -2,040 Descending Houston Center